Theta_e
309 313 312 310 313 311 312 312 311 320 327 325 322 322 321 319 319 321 321 325 326 323 318 316 314 311 308 306 308 310 313 315 318 319 320 317 322 326 329 330 332 333 333 335 336 335 333 334 332
313 314 310 304 309 309 308 307 313 315 322 320 319 319 320 322 322 320 324 321 326 321 318 316 313 309 306 304 305 305 307 310 314 315 316 318 319 318 321 326 329 330 333 333 334 335 334 332 331
314 312 309 306 304 307 307 308 309 321 320 320 320 317 317 318 320 320 322 321 320 319 317 315 311 307 304 304 304 304 305 307 312 313 314 315 316 318 319 317 322 327 329 332 332 333 334 333 331
313 306 303 310 309 307 307 309 311 323 321 320 318 320 315 316 320 321 321 321 319 318 315 313 309 304 303 304 304 303 303 307 311 311 312 312 313 315 317 319 320 321 326 329 331 331 331 330 331
308 303 307 308 308 307 304 305 317 322 319 320 317 317 316 317 319 321 321 320 319 317 314 311 306 304 304 304 303 302 303 306 308 309 309 309 309 310 312 317 318 320 321 323 327 329 330 329 330
307 304 307 307 306 307 307 312 319 320 318 317 317 316 314 315 319 321 320 320 318 317 313 310 306 304 304 304 303 303 303 304 304 304 304 303 303 305 306 310 315 317 319 320 321 326 328 327 328
308 307 308 307 307 308 309 313 316 315 314 315 314 316 313 314 318 320 319 318 316 314 312 309 306 305 304 304 303 303 303 303 303 303 302 302 302 301 300 299 301 310 316 318 318 322 325 326 325
304 306 309 307 309 310 311 310 311 310 312 309 311 316 314 313 318 318 316 315 314 313 310 308 307 306 305 304 303 303 303 303 303 303 302 302 301 300 300 299 299 302 311 315 317 319 323 323 322
302 308 308 308 306 308 311 312 309 309 310 310 310 310 310 315 317 314 312 312 312 311 310 309 308 307 305 305 304 304 303 304 303 303 302 302 301 300 299 299 300 300 304 311 314 313 320 321 320
307 307 307 304 304 309 309 310 309 310 310 309 309 307 311 315 314 312 311 310 310 310 310 310 309 308 307 306 305 305 304 304 304 303 302 301 300 299 299 299 300 301 302 309 312 312 319 321 320
304 307 303 307 306 307 308 307 306 308 307 306 307 307 310 312 312 312 312 311 312 312 311 311 310 309 308 307 306 305 305 305 304 302 301 300 300 299 298 298 300 301 303 310 313 316 317 320 322
307 305 305 307 308 308 308 305 306 304 306 305 304 305 308 311 312 312 312 312 312 311 311 311 310 309 308 307 306 305 305 305 303 301 300 299 298 298 301 302 302 302 308 310 313 317 320 319 322
307 307 304 305 304 305 305 305 305 304 303 302 301 302 306 309 311 311 312 313 312 312 312 311 310 310 309 307 306 305 305 304 301 300 299 300 301 302 303 303 303 305 308 310 312 317 320 318 322
305 306 305 305 305 305 306 305 304 304 302 303 301 301 301 306 309 309 310 311 312 312 311 309 309 309 308 306 305 305 304 301 299 299 300 302 302 302 302 303 305 307 307 309 312 316 318 318 321
306 306 304 303 303 304 304 306 304 304 303 303 302 301 300 301 306 309 311 311 311 311 309 308 308 307 306 305 305 304 300 299 299 299 301 301 302 302 303 304 305 306 306 308 311 314 317 318 318
306 304 304 304 304 305 305 308 307 303 303 304 302 301 300 300 300 305 309 309 310 309 308 307 307 306 305 305 303 300 299 298 299 300 301 301 301 302 304 304 304 305 307 308 310 314 316 317 318
301 302 304 304 304 306 305 308 306 303 304 303 302 301 300 300 299 301 305 308 308 307 307 307 306 306 305 302 299 298 298 297 300 301 301 301 301 302 303 304 305 307 309 309 311 314 316 317 317
302 304 304 305 306 306 306 306 306 304 303 303 302 299 298 299 300 301 304 305 306 306 307 306 305 304 301 299 298 297 297 300 301 301 301 301 302 302 303 304 305 310 311 310 312 314 316 316 316
304 306 307 305 304 305 304 304 305 305 301 300 300 300 299 297 298 299 302 304 305 306 306 305 303 301 299 298 297 296 299 300 301 301 301 302 302 302 302 303 307 310 310 311 312 313 316 316 313
304 304 303 302 303 305 304 306 306 303 304 303 303 302 300 297 299 299 301 303 304 304 304 302 300 299 299 297 296 298 300 300 300 301 302 302 302 302 303 306 308 309 311 313 312 314 314 314 314
304 303 304 304 304 303 303 306 308 306 303 303 303 301 300 298 299 299 299 301 302 302 302 300 300 299 298 296 297 299 299 300 301 301 303 303 303 304 306 307 308 309 312 311 313 314 314 314 314
305 303 305 306 305 305 304 308 306 306 304 302 301 301 300 298 298 298 298 299 300 301 300 300 299 298 297 296 298 299 299 299 300 301 302 302 304 305 306 307 308 310 312 314 313 315 313 313 312
304 304 305 305 305 306 305 305 307 305 309 307 302 299 299 298 298 299 298 300 300 300 299 299 299 297 296 297 299 299 299 299 300 300 301 301 303 304 305 307 308 309 312 314 314 315 313 313 312
304 305 305 304 306 304 305 305 308 309 309 306 302 299 299 298 298 298 299 299 298 298 298 299 298 296 296 298 299 299 299 299 300 300 301 301 302 304 304 306 308 309 312 314 314 315 314 313 313
303 303 301 304 302 307 304 306 308 308 306 303 304 300 298 298 297 297 297 297 297 297 298 298 297 296 296 298 299 299 299 299 299 300 300 300 302 303 303 306 307 309 310 313 314 314 313 313 313
304 303 305 303 308 310 303 309 311 306 303 302 301 300 297 297 297 297 297 297 297 297 298 298 296 295 296 298 299 299 299 299 299 299 300 300 301 302 303 305 307 309 310 312 314 314 312 312 312
305 305 303 301 293 305 309 308 308 306 305 303 300 299 298 297 296 297 296 297 298 297 298 298 296 295 296 298 299 299 299 299 299 299 300 300 302 303 304 305 307 308 311 313 315 314 313 313 313
303 302 307 304 303 306 307 308 311 309 308 304 303 300 298 297 296 296 296 297 298 298 298 297 296 295 296 298 299 298 299 299 299 299 300 301 302 304 305 306 307 308 310 313 315 315 314 313 313
305 305 303 305 306 307 306 310 306 311 308 305 301 299 297 297 296 296 296 297 298 298 298 297 296 295 296 298 298 298 298 298 299 299 301 303 305 305 305 306 307 308 310 312 315 315 314 314 313
302 304 305 311 305 302 305 308 306 309 303 303 302 300 298 296 295 296 296 296 297 297 297 296 295 295 297 298 298 298 298 299 299 300 304 305 305 306 306 306 307 308 310 313 315 314 313 313 313
Wind_Speed
3 2 1 5 3 4 3 6 2 3 2 1 1 2 3 1 4 3 2 11 14 19 16 11 7 3 1 2 2 3 4 4 6 6 6 4 4 6 6 4 5 6 6 7 9 9 12 13 13
2 2 4 2 4 2 4 4 6 6 2 3 2 1 2 4 1 1 8 10 17 19 15 11 6 2 1 2 1 1 3 4 5 6 7 7 7 6 7 8 6 7 8 7 9 9 9 11 13
3 3 3 4 3 4 4 5 5 2 2 2 2 2 2 3 2 4 7 17 20 17 13 10 6 3 3 2 0 1 2 3 4 6 7 8 8 8 8 7 9 8 7 8 8 8 9 9 13
3 5 4 3 5 6 5 3 3 2 2 2 0 5 3 4 3 2 12 18 19 16 12 8 5 4 4 2 1 1 2 4 5 6 7 8 9 9 10 9 8 7 8 8 8 8 8 7 9
5 3 3 1 4 5 5 4 5 4 1 2 3 3 4 2 5 7 13 21 19 16 12 8 6 5 4 3 1 1 2 3 5 6 8 9 10 10 10 9 9 8 7 8 8 10 8 7 8
4 3 3 3 4 5 5 3 5 3 2 1 2 2 5 2 7 11 16 20 16 14 12 9 7 6 4 3 2 1 1 3 5 6 8 10 11 11 11 11 10 9 8 8 10 10 9 8 9
5 4 4 3 4 5 4 5 3 3 2 5 3 3 3 2 10 15 20 19 17 14 11 10 9 7 5 4 3 3 3 4 6 8 10 12 13 13 14 14 13 11 10 10 9 12 10 11 11
4 4 3 4 3 5 1 3 1 5 5 1 5 5 5 2 12 18 19 18 17 16 13 11 9 7 6 5 4 4 4 6 8 10 12 13 14 15 15 15 15 14 13 12 11 12 12 12 13
3 3 2 4 6 3 2 3 2 0 1 2 5 4 1 8 19 20 18 17 17 17 15 12 10 8 7 6 5 6 5 7 9 11 12 14 15 16 16 15 15 15 15 14 13 13 12 13 14
4 3 8 4 4 3 2 4 2 2 3 5 5 5 3 16 21 19 17 19 20 19 17 14 12 10 9 7 6 6 6 8 11 12 14 15 16 16 17 16 15 15 15 14 13 14 12 12 13
4 5 4 3 5 2 2 3 2 3 6 9 7 6 6 12 14 15 18 21 27 21 18 16 13 12 11 9 8 6 7 10 12 13 14 15 16 17 16 16 15 14 13 12 12 12 11 10 11
2 5 4 3 1 1 3 4 5 7 7 2 8 3 5 9 11 18 18 24 21 20 17 14 13 13 12 11 8 7 8 11 12 13 14 15 16 15 15 15 15 14 10 10 10 8 6 8 11
4 3 3 4 4 5 2 7 6 12 12 9 7 5 8 8 13 18 21 20 18 17 15 13 13 13 13 11 8 8 10 11 12 13 12 12 12 13 12 13 13 11 10 11 11 7 6 9 14
2 3 6 6 2 3 4 4 1 6 1 3 4 8 9 8 13 13 16 21 20 17 13 11 11 11 10 9 8 8 10 11 12 11 11 10 10 11 13 13 11 9 8 10 10 8 6 9 13
0 5 6 2 1 3 3 6 10 7 5 8 7 6 6 9 11 17 23 23 22 18 12 10 10 8 8 7 6 8 10 10 11 10 9 9 9 11 10 9 8 7 8 12 10 6 6 9 12
1 3 3 0 3 1 1 7 6 3 3 9 7 6 6 5 11 17 17 18 18 15 12 11 9 8 6 5 5 7 8 9 10 10 8 9 8 7 9 8 8 8 9 11 10 6 7 8 11
5 3 2 7 1 1 2 7 6 2 2 9 9 8 6 6 6 11 11 15 15 14 13 12 10 7 5 3 5 6 7 8 9 7 8 8 7 6 10 9 10 9 10 8 10 7 11 12 14
5 4 3 4 1 1 4 19 14 14 11 13 11 7 7 7 7 5 10 11 13 14 15 13 10 7 4 2 4 6 5 5 6 7 8 6 6 6 7 8 10 9 9 7 7 7 9 13 14
4 2 2 3 1 3 5 13 17 14 7 8 8 6 5 6 1 6 11 14 17 16 16 14 11 7 4 1 4 4 4 3 4 5 6 6 8 7 10 12 10 10 9 9 9 9 10 13 25
1 1 5 4 1 1 5 19 15 7 4 4 3 4 3 3 4 5 12 15 16 18 15 13 10 7 3 0 2 2 3 2 3 4 4 7 8 6 7 9 10 12 12 5 9 6 12 12 18
3 4 3 4 4 1 6 9 5 3 3 3 3 1 0 5 6 5 8 15 16 16 14 12 9 6 3 1 1 1 3 1 1 4 5 6 6 7 7 8 9 12 9 7 8 6 17 17 13
2 3 2 0 2 3 3 4 5 5 8 5 5 5 4 4 4 4 7 13 15 15 13 11 10 6 3 2 1 4 2 1 1 4 4 7 6 6 7 8 9 12 8 6 7 9 12 17 16
4 2 3 2 3 2 1 3 8 4 6 4 7 7 5 5 6 7 8 15 14 14 13 12 10 7 4 3 3 3 2 1 2 4 6 7 6 6 8 8 10 12 10 5 1 10 11 15 22
6 4 6 4 2 2 2 4 8 4 4 1 1 6 5 6 6 6 11 13 14 13 13 13 10 8 5 3 4 2 2 1 1 3 6 7 7 6 8 8 9 12 8 7 2 9 18 19 23
3 5 3 4 3 5 3 2 11 5 5 3 2 6 6 6 7 7 8 12 16 17 16 14 11 9 6 5 4 3 3 2 2 2 5 7 8 7 7 8 8 12 8 7 5 11 19 22 25
5 4 5 6 3 3 2 6 6 5 2 6 3 2 6 7 6 8 8 14 18 18 17 14 12 10 7 6 5 4 3 2 3 2 2 5 7 7 5 6 7 9 5 6 5 10 16 22 26
4 3 2 6 1 3 3 7 10 2 5 7 4 1 6 7 7 7 8 15 19 19 18 16 13 10 8 8 7 5 4 3 3 3 3 4 6 5 6 5 6 6 3 4 4 11 17 21 25
3 2 3 2 1 3 4 5 6 7 8 9 5 4 5 5 6 6 7 15 19 19 17 15 12 11 9 9 8 6 6 4 3 3 4 5 6 5 5 5 5 4 1 2 6 6 16 20 21
3 2 2 2 3 4 1 5 6 3 4 6 7 7 5 5 6 6 7 15 18 17 16 16 14 13 11 10 8 7 7 4 4 3 4 5 6 7 6 6 5 2 1 3 2 6 15 19 18
1 2 5 3 5 0 2 5 4 4 4 6 7 7 6 3 6 7 9 15 18 19 18 18 16 14 12 10 9 8 7 5 4 2 3 6 7 7 5 4 3 4 4 4 8 15 15 19 20
Wind_Direction
334 7 54 37 61 65 264 257 269 242 238 200 115 176 203 196 171 215 183 172 163 168 165 165 164 169 225 335 356 11 22 15 12 7 3 324 289 269 256 292 355 338 295 291 282 271 241 236 230
15 102 61 79 96 87 262 255 235 226 213 138 152 140 284 258 224 180 141 183 165 167 164 163 165 171 247 282 306 3 14 19 18 10 3 0 352 326 284 260 258 297 344 310 293 290 272 245 234
107 78 83 94 114 191 228 221 234 294 169 192 217 212 209 233 244 201 179 168 164 166 165 166 172 195 212 222 274 343 357 19 20 14 6 2 355 349 346 307 268 250 283 337 317 297 278 258 234
137 31 46 98 219 247 212 255 221 188 259 252 28 285 285 211 171 231 174 169 167 170 171 173 186 190 191 195 233 328 3 30 37 26 13 2 354 348 344 340 338 295 267 295 327 309 301 273 245
58 58 73 92 247 258 245 237 174 199 222 202 166 261 255 215 195 179 174 172 175 174 177 182 188 197 197 186 173 354 6 12 14 13 8 1 353 349 340 336 325 323 293 282 292 316 296 283 256
52 99 77 237 246 259 267 202 158 208 213 178 209 269 247 210 177 168 174 175 181 183 183 187 193 195 195 191 193 197 321 335 342 343 343 339 338 337 335 326 317 314 304 290 280 291 285 280 272
117 97 199 219 262 292 241 136 196 201 197 240 162 198 257 221 189 176 175 177 183 189 195 196 199 201 206 207 225 249 288 313 322 327 329 330 327 323 319 313 306 302 298 292 280 268 269 262 266
107 96 158 232 218 266 201 203 190 179 248 52 176 228 255 187 174 171 174 182 188 196 201 205 207 208 217 221 237 256 283 306 316 320 324 324 322 320 317 310 306 298 296 288 280 276 266 254 255
138 73 231 243 169 247 180 215 197 89 262 233 213 209 223 159 162 166 175 188 197 203 207 212 214 215 218 223 240 264 278 305 314 318 319 320 321 320 317 312 308 304 293 287 281 268 258 250 252
103 138 218 215 205 239 261 188 262 307 224 244 271 247 174 170 173 172 184 195 202 208 211 216 222 221 223 230 246 262 289 311 319 320 321 320 320 319 316 312 308 304 296 286 284 275 253 253 254
167 201 211 251 231 227 265 281 235 205 263 224 210 237 176 186 192 197 204 202 207 211 215 222 227 227 229 236 249 271 297 311 313 314 315 314 315 314 312 309 307 302 299 289 290 288 250 257 256
201 240 218 262 225 171 247 307 278 208 241 185 218 217 171 194 203 208 213 213 212 214 221 225 232 234 234 236 249 272 295 305 310 311 311 311 312 316 316 314 311 307 303 294 302 287 241 250 242
201 247 185 263 279 248 310 251 244 262 254 259 242 235 219 213 215 219 222 225 219 220 224 230 236 237 233 233 249 273 292 304 309 312 315 317 321 324 321 319 315 310 307 307 306 298 245 247 221
184 281 266 278 228 240 218 266 54 256 230 231 205 244 235 224 220 217 219 222 216 220 228 228 231 226 221 228 248 279 298 306 310 315 320 329 326 324 318 315 314 314 312 312 307 305 247 238 203
36 312 311 217 258 234 179 270 234 243 288 282 279 265 246 235 225 216 221 221 217 218 220 216 207 204 209 221 258 287 300 309 316 318 317 328 329 327 323 316 308 311 307 303 305 309 242 218 214
20 66 340 302 146 318 311 260 271 354 180 269 277 275 264 255 233 230 228 226 218 213 202 189 192 190 199 226 269 293 308 321 324 327 329 331 325 333 334 323 309 308 309 290 295 292 231 207 194
359 249 219 318 170 14 160 277 266 332 262 280 275 268 264 265 254 230 222 212 204 198 184 176 174 179 194 244 289 311 325 330 342 2 359 353 346 326 326 323 315 309 305 270 282 281 201 186 193
204 219 242 265 311 150 257 267 269 275 261 262 277 279 266 255 248 212 186 180 176 167 164 165 166 170 179 255 306 324 333 11 38 28 4 348 332 327 310 307 318 325 317 287 288 286 205 177 190
117 164 249 264 301 295 243 281 287 289 247 272 279 291 282 246 100 141 154 154 152 152 159 163 162 162 179 278 334 343 9 23 43 21 353 344 336 325 307 310 326 333 334 305 312 258 185 144 136
104 317 274 269 225 213 336 292 278 292 245 207 259 302 286 137 127 119 142 149 153 153 159 159 159 162 162 3 9 -0 359 35 31 5 5 341 350 322 312 322 332 340 340 301 332 216 146 147 165
204 202 217 237 323 182 321 291 324 275 276 234 225 221 150 180 167 146 145 151 148 158 165 159 158 159 139 97 66 36 32 61 14 353 14 6 356 323 325 330 344 352 355 334 323 185 166 149 147
254 212 177 160 51 253 1 283 290 304 297 252 234 220 214 162 145 147 159 153 159 165 167 164 162 156 151 126 115 76 83 122 2 355 6 339 338 332 347 352 358 0 2 11 4 197 181 156 145
221 76 106 70 105 4 320 108 272 337 298 260 222 218 209 170 170 172 175 166 169 173 171 169 164 157 155 141 104 107 123 127 334 344 345 335 336 334 357 3 6 7 13 15 1 195 186 161 156
149 76 48 50 67 40 312 141 283 238 230 227 131 208 193 156 168 164 174 167 171 174 175 176 168 159 159 168 117 155 133 142 299 324 338 336 329 350 359 8 8 4 10 43 48 174 177 158 155
78 74 338 354 5 217 343 88 246 282 262 249 119 203 192 163 166 162 172 176 178 180 180 180 173 161 170 181 152 180 156 188 245 313 341 334 331 355 355 7 349 359 6 46 105 123 157 155 153
177 164 162 211 209 253 28 225 249 213 315 255 280 95 164 175 184 181 191 184 188 186 183 185 179 167 180 194 181 195 184 188 264 283 307 323 319 329 343 346 345 347 7 37 112 135 148 158 150
195 197 148 103 38 52 231 283 297 257 298 279 300 159 208 191 200 193 193 192 194 193 189 188 182 171 188 206 200 207 200 205 244 293 320 309 291 313 321 323 323 339 35 16 100 146 152 151 153
163 147 91 353 187 253 298 287 238 346 338 347 312 298 268 184 196 192 195 191 196 196 192 188 187 176 190 208 214 214 211 219 243 277 297 300 309 303 300 300 302 322 6 90 106 148 154 155 157
136 195 51 156 145 174 182 260 209 313 349 358 354 320 291 213 204 203 203 199 193 192 193 191 187 179 188 206 221 209 219 224 248 271 301 311 305 291 288 288 293 316 159 137 128 158 171 169 164
351 224 164 158 238 111 145 277 186 211 102 63 21 358 338 272 205 199 200 191 190 193 193 194 189 187 188 200 216 213 223 228 254 287 284 288 271 266 267 264 276 264 171 143 140 148 149 157 160